Time,TemperatureF,DewpointF,PressureIn,WindDirection,WindDirectionDegrees,WindSpeedMPH,WindSpeedGustMPH,Humidity,HourlyPrecipIn,Conditions,Clouds,dailyrainin,SoftwareType,DateUTC
2013-09-14 00:08:00,59.3,55.0,29.98,NNW,332,0.0,1.0,85,0.00,,,0.00,weatherlink.com 1.10,2013-09-14 05:08:00,
2013-09-14 00:23:00,59.2,55.0,29.98,North,360,0.0,3.0,85,0.00,,,0.00,weatherlink.com 1.10,2013-09-14 05:23:00,
2013-09-14 00:38:00,59.3,55.0,29.98,North,4,0.0,3.0,85,0.00,,,0.00,weatherlink.com 1.10,2013-09-14 05:38:00,
2013-09-14 00:53:00,58.9,54.0,29.98,NNW,344,1.0,1.0,85,0.00,,,0.00,weatherlink.com 1.10,2013-09-14 05:53:00,
2013-09-14 01:08:00,58.6,55.0,29.98,NW,323,1.0,3.0,86,0.00,,,0.00,weatherlink.com 1.10,2013-09-14 06:08:00,
2013-09-14 01:25:00,58.5,54.0,29.98,NNW,332,0.0,2.0,86,0.00,,,0.00,weatherlink.com 1.10,2013-09-14 06:25:00,
2013-09-14 01:39:00,58.1,54.0,29.98,North,351,1.0,2.0,87,0.00,,,0.00,weatherlink.com 1.10,2013-09-14 06:39:00,
2013-09-14 01:54:00,57.5,54.0,29.98,North,4,1.0,1.0,88,0.00,,,0.00,weatherlink.com 1.10,2013-09-14 06:54:00,
2013-09-14 02:09:00,57.0,54.0,29.99,NNW,330,1.0,2.0,89,0.00,,,0.00,weatherlink.com 1.10,2013-09-14 07:09:00,
2013-09-14 02:24:00,56.4,54.0,29.99,North,356,0.0,0.0,90,0.00,,,0.00,weatherlink.com 1.10,2013-09-14 07:24:00,
2013-09-14 02:39:00,55.9,53.0,29.99,North,356,0.0,1.0,91,0.00,,,0.00,weatherlink.com 1.10,2013-09-14 07:39:00,
2013-09-14 02:54:00,55.0,53.0,29.98,North,357,0.0,0.0,92,0.00,,,0.00,weatherlink.com 1.10,2013-09-14 07:54:00,
2013-09-14 03:09:00,53.9,52.0,29.98,North,356,0.0,0.0,93,0.00,,,0.00,weatherlink.com 1.10,2013-09-14 08:09:00,
2013-09-14 03:24:00,53.3,52.0,29.98,North,356,0.0,0.0,94,0.00,,,0.00,weatherlink.com 1.10,2013-09-14 08:24:00,
2013-09-14 03:39:00,52.9,52.0,29.98,North,356,0.0,1.0,97,0.00,,,0.00,weatherlink.com 1.10,2013-09-14 08:39:00,
2013-09-14 03:54:00,53.3,52.0,29.98,NNW,335,0.0,0.0,96,0.00,,,0.00,weatherlink.com 1.10,2013-09-14 08:54:00,
2013-09-14 04:09:00,53.3,52.0,29.98,NNW,335,0.0,1.0,96,0.00,,,0.00,weatherlink.com 1.10,2013-09-14 09:09:00,
2013-09-14 04:24:00,53.2,52.0,29.99,NNW,335,0.0,1.0,96,0.00,,,0.00,weatherlink.com 1.10,2013-09-14 09:24:00,
2013-09-14 04:39:00,53.3,52.0,29.99,NNW,342,0.0,1.0,95,0.00,,,0.00,weatherlink.com 1.10,2013-09-14 09:39:00,
2013-09-14 04:54:00,53.3,52.0,29.99,NNW,342,0.0,1.0,94,0.00,,,0.00,weatherlink.com 1.10,2013-09-14 09:54:00,
2013-09-14 05:09:00,52.9,51.0,30.00,NNW,342,0.0,1.0,94,0.00,,,0.00,weatherlink.com 1.10,2013-09-14 10:09:00,
2013-09-14 05:24:00,52.5,51.0,30.00,NNW,342,0.0,1.0,95,0.00,,,0.00,weatherlink.com 1.10,2013-09-14 10:24:00,
2013-09-14 05:39:00,52.5,51.0,30.00,NNW,330,1.0,2.0,95,0.00,,,0.00,weatherlink.com 1.10,2013-09-14 10:39:00,
2013-09-14 05:54:00,53.0,51.0,30.00,NW,315,1.0,3.0,94,0.00,,,0.00,weatherlink.com 1.10,2013-09-14 10:54:00,
2013-09-14 06:09:00,53.1,51.0,30.00,NNW,339,0.0,1.0,93,0.00,,,0.00,weatherlink.com 1.10,2013-09-14 11:09:00,
2013-09-14 06:24:00,52.4,51.0,30.02,NNW,339,1.0,1.0,94,0.00,,,0.00,weatherlink.com 1.10,2013-09-14 11:24:00,
2013-09-14 06:39:00,52.3,51.0,30.02,NNW,339,0.0,1.0,95,0.00,,,0.00,weatherlink.com 1.10,2013-09-14 11:39:00,
2013-09-14 06:54:00,52.0,51.0,30.02,NNW,339,0.0,0.0,96,0.00,,,0.00,weatherlink.com 1.10,2013-09-14 11:54:00,
2013-09-14 07:09:00,52.7,52.0,30.03,North,355,0.0,1.0,96,0.00,,,0.00,weatherlink.com 1.10,2013-09-14 12:09:00,
2013-09-14 07:24:00,54.7,53.0,30.03,NNE,19,1.0,2.0,93,0.00,,,0.00,weatherlink.com 1.10,2013-09-14 12:24:00,
2013-09-14 07:39:00,55.9,53.0,30.03,North,9,3.0,4.0,90,0.00,,,0.00,weatherlink.com 1.10,2013-09-14 12:39:00,
2013-09-14 07:54:00,56.8,53.0,30.03,NNW,342,3.0,7.0,88,0.00,,,0.00,weatherlink.com 1.10,2013-09-14 12:54:00,
2013-09-14 08:09:00,57.9,54.0,30.04,NNE,20,2.0,6.0,86,0.00,,,0.00,weatherlink.com 1.10,2013-09-14 13:09:00,
2013-09-14 08:24:00,59.4,54.0,30.05,NE,54,1.0,5.0,83,0.00,,,0.00,weatherlink.com 1.10,2013-09-14 13:24:00,
2013-09-14 08:39:00,60.6,55.0,30.05,East,85,1.0,5.0,81,0.00,,,0.00,weatherlink.com 1.10,2013-09-14 13:39:00,
2013-09-14 08:55:00,61.1,55.0,30.05,NW,325,1.0,6.0,80,0.00,,,0.00,weatherlink.com 1.10,2013-09-14 13:55:00,
2013-09-14 09:10:00,61.5,55.0,30.05,ESE,110,4.0,6.0,79,0.00,,,0.00,weatherlink.com 1.10,2013-09-14 14:10:00,
2013-09-14 09:25:00,62.7,56.0,30.06,SE,132,4.0,6.0,78,0.00,,,0.00,weatherlink.com 1.10,2013-09-14 14:25:00,
2013-09-14 09:40:00,63.3,55.0,30.06,East,85,3.0,6.0,75,0.00,,,0.00,weatherlink.com 1.10,2013-09-14 14:40:00,
2013-09-14 09:55:00,63.8,55.0,30.06,SE,131,5.0,8.0,74,0.00,,,0.00,weatherlink.com 1.10,2013-09-14 14:55:00,
2013-09-14 10:10:00,64.8,56.0,30.06,SE,142,3.0,5.0,74,0.00,,,0.00,weatherlink.com 1.10,2013-09-14 15:10:00,
2013-09-14 10:25:00,65.2,57.0,30.06,SE,130,0.0,6.0,74,0.00,,,0.00,weatherlink.com 1.10,2013-09-14 15:25:00,
2013-09-14 10:40:00,66.4,56.0,30.06,NE,43,0.0,10.0,69,0.00,,,0.00,weatherlink.com 1.10,2013-09-14 15:40:00,
2013-09-14 10:55:00,67.0,56.0,30.06,East,89,2.0,7.0,69,0.00,,,0.00,weatherlink.com 1.10,2013-09-14 15:55:00,
2013-09-14 11:10:00,68.3,56.0,30.06,ENE,63,4.0,6.0,64,0.00,,,0.00,weatherlink.com 1.10,2013-09-14 16:10:00,
2013-09-14 11:25:00,69.0,57.0,30.06,SSW,205,3.0,7.0,66,0.00,,,0.00,weatherlink.com 1.10,2013-09-14 16:25:00,
2013-09-14 11:40:00,70.4,57.0,30.06,NW,319,1.0,6.0,63,0.00,,,0.00,weatherlink.com 1.10,2013-09-14 16:40:00,
2013-09-14 11:55:00,71.0,57.0,30.06,ESE,114,2.0,6.0,62,0.00,,,0.00,weatherlink.com 1.10,2013-09-14 16:55:00,
2013-09-14 12:10:00,72.0,58.0,30.05,ESE,117,7.0,10.0,62,0.00,,,0.00,weatherlink.com 1.10,2013-09-14 17:10:00,
2013-09-14 12:25:00,72.4,56.0,30.05,ESE,105,5.0,9.0,57,0.00,,,0.00,weatherlink.com 1.10,2013-09-14 17:25:00,
2013-09-14 12:40:00,73.1,58.0,30.05,East,82,1.0,7.0,59,0.00,,,0.00,weatherlink.com 1.10,2013-09-14 17:40:00,
2013-09-14 12:55:00,72.8,57.0,30.05,SE,131,7.0,8.0,57,0.00,,,0.00,weatherlink.com 1.10,2013-09-14 17:55:00,
2013-09-14 13:10:00,73.6,57.0,30.05,SSE,162,2.0,6.0,57,0.00,,,0.00,weatherlink.com 1.10,2013-09-14 18:10:00,
2013-09-14 13:25:00,74.3,56.0,30.04,NW,304,0.0,7.0,54,0.00,,,0.00,weatherlink.com 1.10,2013-09-14 18:25:00,
2013-09-14 13:40:00,74.9,56.0,30.04,NNE,22,0.0,6.0,52,0.00,,,0.00,weatherlink.com 1.10,2013-09-14 18:40:00,
2013-09-14 13:55:00,75.6,57.0,30.04,SW,215,2.0,7.0,53,0.00,,,0.00,weatherlink.com 1.10,2013-09-14 18:55:00,
2013-09-14 14:11:00,76.3,57.0,30.04,East,89,5.0,11.0,51,0.00,,,0.00,weatherlink.com 1.10,2013-09-14 19:11:00,
2013-09-14 14:26:00,75.3,57.0,30.03,SE,124,1.0,4.0,54,0.00,,,0.00,weatherlink.com 1.10,2013-09-14 19:26:00,
2013-09-14 14:41:00,75.7,56.0,30.03,ESE,115,4.0,7.0,51,0.00,,,0.00,weatherlink.com 1.10,2013-09-14 19:41:00,
2013-09-14 14:56:00,76.6,57.0,30.03,NNW,336,5.0,5.0,51,0.00,,,0.00,weatherlink.com 1.10,2013-09-14 19:56:00,
2013-09-14 15:11:00,76.5,57.0,30.03,West,268,0.0,6.0,52,0.00,,,0.00,weatherlink.com 1.10,2013-09-14 20:11:00,
2013-09-14 15:26:00,76.8,54.0,30.03,NE,56,0.0,7.0,46,0.00,,,0.00,weatherlink.com 1.10,2013-09-14 20:26:00,
2013-09-14 15:41:00,77.2,55.0,30.03,ENE,57,3.0,6.0,47,0.00,,,0.00,weatherlink.com 1.10,2013-09-14 20:41:00,
2013-09-14 15:56:00,78.0,57.0,30.03,NE,37,2.0,3.0,49,0.00,,,0.00,weatherlink.com 1.10,2013-09-14 20:56:00,
2013-09-14 16:26:00,77.5,59.0,30.02,NNW,343,2.0,7.0,53,0.00,,,0.00,weatherlink.com 1.10,2013-09-14 21:26:00,
2013-09-14 16:41:00,77.7,58.0,30.03,East,94,3.0,6.0,50,0.00,,,0.00,weatherlink.com 1.10,2013-09-14 21:41:00,
2013-09-14 16:56:00,77.2,59.0,30.03,NE,51,3.0,6.0,53,0.00,,,0.00,weatherlink.com 1.10,2013-09-14 21:56:00,
2013-09-14 17:11:00,77.4,59.0,30.03,SSE,156,1.0,6.0,54,0.00,,,0.00,weatherlink.com 1.10,2013-09-14 22:11:00,
2013-09-14 17:26:00,77.6,60.0,30.03,SE,142,0.0,3.0,54,0.00,,,0.00,weatherlink.com 1.10,2013-09-14 22:26:00,
2013-09-14 17:41:00,78.3,60.0,30.04,ENE,64,1.0,3.0,54,0.00,,,0.00,weatherlink.com 1.10,2013-09-14 22:41:00,
2013-09-14 17:56:00,77.3,59.0,30.04,NE,41,0.0,2.0,54,0.00,,,0.00,weatherlink.com 1.10,2013-09-14 22:56:00,
2013-09-14 18:11:00,77.5,61.0,30.04,NE,41,0.0,1.0,57,0.00,,,0.00,weatherlink.com 1.10,2013-09-14 23:11:00,
2013-09-14 18:26:00,75.6,61.0,30.04,NE,41,0.0,0.0,60,0.00,,,0.00,weatherlink.com 1.10,2013-09-14 23:26:00,
2013-09-14 18:41:00,72.0,61.0,30.04,NE,41,0.0,0.0,68,0.00,,,0.00,weatherlink.com 1.10,2013-09-14 23:41:00,
2013-09-14 18:56:00,69.2,62.0,30.04,NE,41,0.0,0.0,77,0.00,,,0.00,weatherlink.com 1.10,2013-09-14 23:56:00,
2013-09-14 19:11:00,66.7,61.0,30.05,NE,41,0.0,0.0,83,0.00,,,0.00,weatherlink.com 1.10,2013-09-15 00:11:00,
2013-09-14 19:26:00,65.2,61.0,30.05,NE,41,0.0,0.0,86,0.00,,,0.00,weatherlink.com 1.10,2013-09-15 00:26:00,
2013-09-14 19:41:00,64.1,61.0,30.05,NE,41,0.0,0.0,88,0.00,,,0.00,weatherlink.com 1.10,2013-09-15 00:41:00,
2013-09-14 19:56:00,63.0,60.0,30.06,NE,41,0.0,0.0,90,0.00,,,0.00,weatherlink.com 1.10,2013-09-15 00:56:00,
2013-09-14 20:11:00,61.9,59.0,30.07,NE,41,0.0,0.0,91,0.00,,,0.00,weatherlink.com 1.10,2013-09-15 01:11:00,
2013-09-14 20:41:00,61.0,59.0,30.07,NE,41,0.0,0.0,94,0.00,,,0.00,weatherlink.com 1.10,2013-09-15 01:41:00,
2013-09-14 20:56:00,60.7,60.0,30.08,NE,41,0.0,0.0,96,0.00,,,0.00,weatherlink.com 1.10,2013-09-15 01:56:00,
2013-09-14 21:11:00,60.3,59.0,30.08,NE,41,0.0,0.0,96,0.00,,,0.00,weatherlink.com 1.10,2013-09-15 02:11:00,
2013-09-14 21:26:00,60.5,59.0,30.09,NE,41,0.0,0.0,96,0.00,,,0.00,weatherlink.com 1.10,2013-09-15 02:26:00,
2013-09-14 21:41:00,60.1,59.0,30.08,NE,41,0.0,0.0,96,0.00,,,0.00,weatherlink.com 1.10,2013-09-15 02:41:00,
2013-09-14 21:56:00,59.6,59.0,30.09,NE,41,0.0,0.0,97,0.00,,,0.00,weatherlink.com 1.10,2013-09-15 02:56:00,
2013-09-14 22:11:00,58.8,58.0,30.09,NE,41,0.0,0.0,96,0.00,,,0.00,weatherlink.com 1.10,2013-09-15 03:11:00,
2013-09-14 22:26:00,58.4,58.0,30.09,NE,41,0.0,0.0,97,0.00,,,0.00,weatherlink.com 1.10,2013-09-15 03:26:00,
2013-09-14 22:41:00,58.6,58.0,30.09,NE,41,0.0,0.0,98,0.00,,,0.00,weatherlink.com 1.10,2013-09-15 03:41:00,
2013-09-14 22:56:00,58.8,58.0,30.09,NE,41,0.0,0.0,98,0.00,,,0.00,weatherlink.com 1.10,2013-09-15 03:56:00,
2013-09-14 23:11:00,58.5,58.0,30.09,NE,41,0.0,0.0,98,0.00,,,0.00,weatherlink.com 1.10,2013-09-15 04:11:00,
2013-09-14 23:26:00,57.8,57.0,30.09,NE,41,0.0,0.0,98,0.00,,,0.00,weatherlink.com 1.10,2013-09-15 04:26:00,
2013-09-14 23:41:00,58.0,58.0,30.09,NE,41,0.0,0.0,98,0.00,,,0.00,weatherlink.com 1.10,2013-09-15 04:41:00,
2013-09-14 23:56:00,57.9,57.0,30.10,NE,41,0.0,0.0,98,0.00,,,0.00,weatherlink.com 1.10,2013-09-15 04:56:00,